Weather Roundup
Issued by NWS Chicago, IL

Home | Current Version | Previous Version | Graphics & Text | Print | Product List | Glossary On
Versions: 1 2 3 4 5 6 7 8 9 10 11 12 13 14 15 16 17 18 19 20 21 22 23 24 25 26 27 28 29 30 31 32 33 34 35 36 37 38 39 40 41 42 43 44 45 46 47 48 49 50
000
NZUS59 KLOT 230807
HRRLOT

CHICAGO AREA WEATHER ROUNDUP
NATIONAL WEATHER SERVICE CHICAGO/ROMEOVILLE IL
300 AM CDT THU MAR 23 2017

NOTE: "FAIR" INDICATES FEW OR NO CLOUDS BELOW 12,000 FEET WITH NO
SIGNIFICANT WEATHER AND/OR OBSTRUCTIONS TO VISIBILITY.

* THESE STATIONS ARE NOT UNDER NWS QUALITY CONTROL. THEY ALSO MAY NOT
  REPORT WEATHER SUCH AS PRECIPITATION OR FOG.

ILZ005-006-012>014-019>023-230900-
NORTHEAST ILLINOIS

CITY           SKY/WX    TMP DP  RH WIND       PRES   REMARKS
OHARE          CLOUDY    29  22  75 SE7       30.43F WCI  22
MIDWAY         PTCLDY    32  19  58 SE10      30.44F WCI  24
AURORA         CLOUDY    33  21  61 E12       30.42F WCI  24
LANSING*       CLOUDY    28  23  81 SE5       30.46F WCI  23
JOLIET*        CLOUDY    33  22  65 SE9       30.44F WCI  25
WAUKEGAN       CLOUDY    31  25  78 SE8       30.43F WCI  23
DUPAGE AIRPORT MOCLDY    30  24  78 E6        30.42F WCI  24
WHEELING       PTCLDY    29  24  82 SE3       30.45F
KANKAKEE*      CLOUDY    29  22  75 CALM      30.43F
MORRIS*        CLOUDY    32  22  67 SE8       30.42F WCI  25
LEWIS AIRPORT* CLOUDY    31  24  76 SE9       30.43F WCI  23
NORTHERLY ISL    N/A     34  21  59 SE15        N/A  WCI  24
$$

WIZ051-052-058>065-066-070>072-230900-
SOUTHEAST WISCONSIN

CITY           SKY/WX    TMP DP  RH WIND       PRES   REMARKS
MILWAUKEE      CLOUDY    30  22  72 SE5       30.44F WCI  25
KENOSHA*       CLOUDY    28  22  78 SE5       30.43F WCI  23
RACINE*        CLOUDY    32  24  72 SE9       30.45F WCI  24
WAUKESHA       CLOUDY    23  18  80 E5        30.43F WCI  17
WEST BEND      CLOUDY    23  21  93 CALM      30.43S
$$

INZ001>003-010>013-019-020-230900-
NORTHWEST INDIANA

CITY           SKY/WX    TMP DP  RH WIND       PRES   REMARKS
GARY*          CLOUDY    30  19  65 E5        30.46F WCI  25
MICHIGAN CITY* NOT AVBL
RENSSELAER*    NOT AVBL
VALPARAISO     CLOUDY    27  19  72 E8        30.46F WCI  19
$$

LMZ740>746-230900-
SOUTHERN LAKE MICHIGAN

STATION/POSITION TIME  SKY/WX   TEMP WIND        PRES    VSBY
                                AIR  DIR/SP/G
                 (UTC)          (F)  (DEG/KT/KT) (MB)    (MI)
HARRISON CRIB    0740            35  150/ 17/ 22   N/A
BURNHAM HARBOR   0800            33  120/  9/ 13   N/A
CALUMET HARBOR   0748            32  140/  5/  7 1030.5F
BURNS HARBOR     0740            32  140/  8/ 11 1031.8S
MICHIGAN CITY    0740            28   90/  4/  5   N/A
$$

ABBREVIATIONS USED IN REMARKS
   TC - TEMPERATURE IN CELSIUS
  WCI - WIND CHILL INDEX
   HX - HEAT INDEX
  VSB - VISIBILITY
$$



USA.gov is the U.S. government's official web portal to all federal, state and local government web resources and services.